[[{"header":{"parameterUnit":"m.s-1","parameterCategory":2,"la1":30.2991,"la2":30.254,"lo1":-89.0895,"lo2":-89.0444,"dy":0.0017,"dx":0.0017,"nx":28,"ny":28,"refTime":"2024-04-30T21:00:00:Z","depth":"0","parameterNumber":2,"parameterNumberName":"U-component_of_CURRENTS"},"data":[0,0,0,0,0,0,0,0,0,0,0,0,0,0,0,0,0,0,0,0,0,0,0,0,0,0,0,0,0,0,0,0,0,0,0,0,0,0,0,0,0,0,0,0,0,0,0,0,0,0,0,0,0,0,0,0,0,0,0.2055,0.2055,0,0.2082,0.2083,0.2083,0.2089,0.2088,0.2088,0.2088,0.2221,0.2225,0.2229,0,0,0,0,0,0,0,0,0,0,0,0,0,0.2064,0.2064,0.2055,0.2055,0.2056,0.2082,0.2083,0.2083,0.2089,0.2088,0.2088,0.2088,0.222,0.2224,0.2229,0,0,0,0,0,0,0,0,0,0,0,0,0,0.2074,0.2064,0.2055,0.2061,0.2061,0.2082,0.2083,0.2083,0.2089,0.2088,0.2088,0.2087,0.2218,0.2224,0.223,0.2274,0,0,0.2247,0.225,0,0,0,0,0,0,0,0,0.2073,0.2073,0.206,0.206,0.2061,0.2081,0.2135,0.2152,0.2089,0.208,0.2088,0.2087,0.2184,0.2192,0.2198,0.228,0.2286,0.2248,0.2251,0.2254,0.2255,0,0,0,0,0,0,0,0.2072,0.2073,0.2067,0.206,0.2061,0.2081,0.2082,0.2138,0.2137,0.208,0.2081,0.2082,0.2185,0.2193,0.2202,0.2288,0.2248,0.2253,0.2256,0.2258,0.2414,0.2414,0,0,0,0,0,0,0.2064,0.2072,0.2066,0.2068,0.2065,0.2081,0.2082,0.2076,0.2134,0.2141,0.2082,0.2082,0.2183,0.2195,0.2207,0.2277,0.2254,0.2259,0.2262,0.2413,0.2414,0.2415,0,0,0,0,0,0,0.2064,0.2063,0.2065,0.207,0.2071,0.2081,0.2075,0.2076,0.2084,0.2134,0.2143,0.2087,0.2183,0.2199,0.2261,0.2282,0.2262,0.2267,0.2412,0.2413,0.2414,0.2409,0,0,0,0,0,0,0.2064,0.2063,0.2064,0.2069,0.2071,0.2084,0.2075,0.2077,0.2085,0.2085,0.2142,0.2153,0.2184,0.2253,0.2267,0.2289,0.2271,0.2411,0.2413,0.2414,0.2408,0.241,0.2411,0,0,0,0,0,0.2064,0.2068,0.2063,0.2063,0.2068,0.2085,0.2088,0.2094,0.2086,0.2097,0.2133,0.2152,0.227,0.2258,0.2275,0.2299,0.2411,0.2412,0.2414,0.2408,0.2409,0.2411,0,0,0,0,0,0,0.2083,0.2069,0.2064,0.2065,0.2076,0.2085,0.2097,0.2095,0.2129,0.2133,0.2171,0.2186,0.2247,0.2274,0.2259,0.2345,0.234,0.2345,0.233,0.2332,0.2333,0.2304,0.2276,0,0,0,0,0,0.2083,0.2076,0.2076,0.208,0.2084,0.2089,0.2097,0.21,0.2125,0.2137,0.2171,0.2215,0.2267,0.2298,0.2346,0.2402,0.2401,0.2424,0.2425,0.2426,0.2413,0.2432,0.2433,0.242,0.242,0.242,0,0,0.2092,0.2084,0.2081,0.2083,0.2091,0.2103,0.2094,0.2108,0.212,0.2152,0.2188,0.2227,0.2283,0.234,0.2369,0.2366,0.243,0.2428,0.2428,0.2414,0.2433,0.2434,0.2435,0.2421,0.2421,0.242,0,0,0.2107,0.2099,0.2098,0.2105,0.2113,0.2118,0.2121,0.213,0.2139,0.2178,0.2203,0.2245,0.2322,0.2357,0.2388,0.2426,0.2437,0.2447,0.2434,0.2453,0.2454,0.2455,0.2452,0.2452,0.2446,0.2446,0.2446,0,0.2122,0.2111,0.2107,0.2113,0.2118,0.2123,0.2133,0.2149,0.2178,0.2193,0.2191,0.2282,0.2326,0.2393,0.2398,0.2429,0.2432,0.2425,0.2453,0.2454,0.2455,0.2452,0.2452,0.2446,0.2446,0.2446,0.2446,0,0.2133,0.2129,0.2134,0.2135,0.2148,0.2157,0.2172,0.2189,0.2195,0.221,0.2263,0.2307,0.2357,0.238,0.2402,0.2439,0.2436,0.2453,0.2445,0.2456,0.2452,0.2452,0.2446,0.2446,0.2446,0.2446,0,0,0.2147,0.2139,0.2141,0.2138,0.2154,0.2163,0.2193,0.2218,0.2236,0.2262,0.2284,0.2352,0.2359,0.2392,0.2424,0.2433,0.2439,0.2438,0.2439,0.2426,0.2464,0.2411,0.2406,0.2463,0.2463,0.2463,0.2457,0,0.2154,0.2155,0.2155,0.2167,0.2167,0.2183,0.2209,0.2237,0.2262,0.229,0.2324,0.2367,0.2372,0.2395,0.2406,0.2446,0.2441,0.2438,0.2463,0.2463,0.2408,0.2406,0.228,0.226,0.2458,0.2458,0.2458,0,0.2156,0.2154,0.2157,0.2163,0.2167,0.2182,0.2215,0.2241,0.229,0.231,0.2347,0.2372,0.241,0.2398,0.244,0.2439,0.2438,0.2448,0.2449,0.2397,0.2411,0.2283,0.2253,0.2183,0.2459,0.2459,0.2459,0,0.2147,0.2153,0.2149,0.2152,0.2169,0.2181,0.22,0.2247,0.2273,0.2323,0.2348,0.2389,0.2425,0.2427,0.2452,0.2446,0.248,0.2483,0.2425,0.2421,0.2315,0.2301,0.2209,0.2478,0.2478,0.2478,0.2478,0,0.2141,0.2138,0.2142,0.214,0.2148,0.217,0.2195,0.2226,0.2275,0.2311,0.2355,0.2388,0.2433,0.2463,0.2455,0.2446,0.2487,0.2408,0.2414,0.2309,0.2296,0.2232,0.221,0.2478,0.2478,0.2478,0.2478,0,0.2126,0.2125,0.212,0.2133,0.2138,0.2147,0.2185,0.2208,0.2263,0.2311,0.2326,0.2404,0.244,0.2468,0.2493,0.2461,0.2359,0.2431,0.2293,0.2282,0.2133,0.2116,0.1931,0.1883,0.2343,0.2342,0.2341,0,0.2116,0.211,0.211,0.2108,0.2112,0.2129,0.2143,0.2195,0.2224,0.2314,0.2334,0.2397,0.242,0.2439,0.24,0.2365,0.2304,0.2222,0.2176,0.209,0.2077,0.1986,0.1954,0.2035,0.2031,0.2028,0.2026,0,0.2109,0.2105,0.2103,0.2084,0.2089,0.2092,0.2119,0.2138,0.2204,0.2239,0.2288,0.2311,0.2346,0.2263,0.2237,0.2199,0.2077,0.2158,0.2107,0.1845,0.17,0.167,0.2073,0.2,0.2003,0.2005,0.2006,0.2007,0.2111,0.2093,0.2078,0.2047,0.2053,0.2036,0.201,0.2047,0.206,0.2078,0.2182,0.2165,0.2142,0.208,0.203,0.1864,0.1892,0.1767,0.1759,0.168,0.1597,0.1929,0.1848,0.1849,0.1851,0.1852,0.1853,0,0.2087,0.2056,0.2039,0.1988,0.1951,0.197,0.1968,0.1924,0.1889,0.1948,0.1961,0.1902,0.1799,0.1756,0.1599,0.1481,0.1406,0.1422,0.1269,0.1269,0.1592,0.1544,0.1346,0.1346,0.1346,0.1346,0.1346,0.1346,0.208,0.2025,0.1981,0.1884,0.1848,0.1763,0.1733,0.1688,0.1695,0.1627,0.158,0.1597,0.1557,0.138,0.121,0.1181,0.108,0.0968,0.1026,0.1262,0.1293,0.1324,0.1273,0.1021,0.1021,0.0621,0.0618,0.0616]},{"header":{"parameterUnit":"m.s-1","parameterCategory":2,"la1":30.2991,"la2":30.254,"lo1":-89.0895,"lo2":-89.0444,"dy":0.0017,"dx":0.0017,"nx":28,"ny":28,"refTime":"2024-04-30T21:00:00:Z","depth":"0","parameterNumber":3,"parameterNumberName":"V-component_of_CURRENTS"},"data":[0,0,0,0,0,0,0,0,0,0,0,0,0,0,0,0,0,0,0,0,0,0,0,0,0,0,0,0,0,0,0,0,0,0,0,0,0,0,0,0,0,0,0,0,0,0,0,0,0,0,0,0,0,0,0,0,0,0,0.0364,0.0364,0,0.0354,0.0354,0.0354,0.0334,0.0333,0.0333,0.0333,0.0282,0.0281,0.0279,0,0,0,0,0,0,0,0,0,0,0,0,0,0.0333,0.0333,0.0364,0.0364,0.0364,0.0354,0.0354,0.0354,0.0334,0.0333,0.0333,0.0333,0.0282,0.0281,0.0279,0,0,0,0,0,0,0,0,0,0,0,0,0,0.0336,0.0334,0.0364,0.0353,0.0353,0.0354,0.0354,0.0354,0.0334,0.0333,0.0333,0.0332,0.0282,0.0281,0.0279,0.0278,0,0,0.0274,0.0273,0,0,0,0,0,0,0,0,0.0336,0.0337,0.0355,0.0354,0.0353,0.0346,0.0325,0.0327,0.0334,0.0339,0.0333,0.0332,0.03,0.0297,0.0295,0.0275,0.0273,0.0274,0.0273,0.0272,0.0272,0,0,0,0,0,0,0,0.0335,0.0337,0.0358,0.0355,0.0354,0.0339,0.0339,0.0325,0.0321,0.0339,0.0338,0.0339,0.0299,0.0297,0.0294,0.0272,0.0274,0.0273,0.0272,0.0271,0.0262,0.0263,0,0,0,0,0,0,0.0342,0.0337,0.0359,0.0358,0.0345,0.034,0.034,0.0348,0.0322,0.0318,0.0339,0.0338,0.03,0.0296,0.0292,0.0304,0.0272,0.0271,0.027,0.0262,0.0263,0.0263,0,0,0,0,0,0,0.0341,0.0344,0.0359,0.0348,0.0349,0.0341,0.035,0.0348,0.0347,0.0323,0.0318,0.0342,0.0299,0.0294,0.029,0.0302,0.027,0.0269,0.0261,0.0262,0.0263,0.0319,0,0,0,0,0,0,0.0341,0.0344,0.0351,0.0349,0.035,0.0367,0.035,0.0348,0.0349,0.0347,0.0323,0.0318,0.0299,0.0293,0.0289,0.0299,0.0267,0.026,0.0261,0.0263,0.0317,0.0322,0.0327,0,0,0,0,0,0.034,0.0352,0.0351,0.0354,0.036,0.0368,0.0367,0.0358,0.035,0.0355,0.0342,0.0319,0.0299,0.0293,0.0287,0.0297,0.0259,0.0261,0.0263,0.0314,0.0321,0.0327,0,0,0,0,0,0,0.0338,0.0351,0.035,0.0365,0.0369,0.0365,0.0369,0.0363,0.0357,0.0355,0.0329,0.0323,0.0323,0.0305,0.0298,0.0299,0.0275,0.0275,0.0316,0.0322,0.0327,0.0336,0.0266,0,0,0,0,0,0.0343,0.0359,0.0364,0.0376,0.038,0.0375,0.0377,0.0373,0.0369,0.0366,0.0351,0.0336,0.0326,0.032,0.0307,0.0309,0.0292,0.0312,0.0317,0.0322,0.0326,0.0319,0.0324,0.0269,0.0269,0.0269,0,0,0.0344,0.0355,0.0362,0.0377,0.0378,0.0394,0.0375,0.0383,0.0395,0.0361,0.0371,0.0353,0.0331,0.0334,0.0332,0.032,0.0328,0.0324,0.0328,0.0329,0.0321,0.0327,0.0332,0.027,0.027,0.027,0,0,0.036,0.0367,0.0387,0.0395,0.0406,0.0407,0.0412,0.0415,0.0415,0.0423,0.0402,0.0395,0.038,0.0369,0.0361,0.0387,0.0356,0.0382,0.0416,0.041,0.0415,0.0418,0.0402,0.0404,0.0386,0.0386,0.0386,0,0.0359,0.039,0.0392,0.0414,0.0426,0.0417,0.044,0.0441,0.0442,0.0449,0.0434,0.0422,0.0398,0.0404,0.0412,0.0399,0.0388,0.0394,0.0418,0.0421,0.0424,0.0406,0.0407,0.0389,0.0388,0.0388,0.0388,0,0.0394,0.0416,0.0429,0.0458,0.0469,0.0487,0.0493,0.0502,0.05,0.0502,0.0508,0.048,0.0472,0.0464,0.0444,0.0456,0.0439,0.0424,0.0402,0.0433,0.0412,0.0413,0.0393,0.0392,0.0391,0.039,0,0,0.0398,0.0445,0.045,0.0475,0.0496,0.0512,0.0533,0.0555,0.0577,0.0567,0.0589,0.0566,0.0549,0.0538,0.051,0.0504,0.0508,0.0477,0.0475,0.0462,0.0491,0.0487,0.0487,0.0501,0.0501,0.0502,0.0468,0,0.0426,0.0481,0.0494,0.0542,0.0571,0.0574,0.0599,0.0615,0.0622,0.064,0.0614,0.0617,0.0578,0.0572,0.0561,0.0524,0.0512,0.0518,0.0461,0.046,0.0454,0.0489,0.0534,0.0509,0.0468,0.0468,0.0468,0,0.0458,0.0493,0.0548,0.0598,0.061,0.0633,0.0675,0.0697,0.0714,0.0718,0.0715,0.069,0.0674,0.0634,0.0589,0.0597,0.0548,0.0515,0.0513,0.049,0.0458,0.0472,0.0511,0.0489,0.0468,0.0468,0.0468,0,0.0475,0.0531,0.0579,0.0596,0.0646,0.0669,0.0694,0.0722,0.0754,0.0764,0.0786,0.0756,0.0748,0.069,0.0614,0.0604,0.0564,0.0538,0.0486,0.0485,0.0503,0.0502,0.0516,0.0503,0.0503,0.0503,0.0503,0,0.0505,0.0543,0.0592,0.0621,0.0679,0.0698,0.0758,0.0776,0.0812,0.0867,0.0826,0.0854,0.0764,0.0727,0.0643,0.0574,0.0583,0.05,0.0483,0.0523,0.0525,0.0488,0.0459,0.0502,0.0502,0.0502,0.0502,0,0.0521,0.0553,0.0612,0.067,0.0692,0.0733,0.0805,0.0851,0.0874,0.0941,0.0945,0.0934,0.0893,0.0793,0.0702,0.0623,0.0535,0.0508,0.0556,0.0545,0.0479,0.045,0.0432,0.0426,0.0454,0.0453,0.0453,0,0.0535,0.0569,0.0647,0.0688,0.0718,0.0781,0.0833,0.0878,0.0934,0.1,0.1039,0.1014,0.102,0.0883,0.0742,0.0602,0.0546,0.0532,0.0517,0.0493,0.0448,0.0435,0.0431,0.0559,0.0559,0.056,0.056,0,0.0565,0.0592,0.0645,0.0726,0.0788,0.0863,0.0938,0.0993,0.106,0.1119,0.1191,0.1197,0.1087,0.0986,0.0789,0.0683,0.0543,0.0539,0.0511,0.0534,0.0525,0.0506,0.0549,0.0566,0.0565,0.0565,0.0564,0.0564,0.0588,0.0628,0.0698,0.0772,0.0845,0.0938,0.1002,0.1091,0.1191,0.1288,0.1301,0.1343,0.1203,0.0958,0.0817,0.0607,0.0584,0.0544,0.051,0.0499,0.0506,0.0556,0.0553,0.0553,0.0552,0.0552,0.0551,0,0.0621,0.0671,0.074,0.0836,0.091,0.0947,0.107,0.1141,0.1263,0.1366,0.1432,0.1415,0.1251,0.1042,0.0763,0.0619,0.0567,0.0532,0.0538,0.0532,0.0582,0.0601,0.0613,0.0613,0.0613,0.0614,0.0614,0.0614,0.0645,0.0713,0.0747,0.0869,0.0935,0.1039,0.1109,0.1224,0.1323,0.1445,0.1496,0.1521,0.1394,0.095,0.0682,0.061,0.0533,0.0501,0.0446,0.0492,0.0491,0.049,0.0503,0.0495,0.0495,0.0447,0.0446,0.0446]}],[{"header":{"parameterUnit":"m.s-1","parameterCategory":2,"la1":30.2991,"la2":30.254,"lo1":-89.0895,"lo2":-89.0444,"dy":0.0017,"dx":0.0017,"nx":28,"ny":28,"refTime":"2024-04-30T21:00:00:Z","depth":"2","parameterNumber":2,"parameterNumberName":"U-component_of_CURRENTS"},"data":[0,0,0,0,0,0,0,0,0,0,0,0,0,0,0,0,0,0,0,0,0,0,0,0,0,0,0,0,0,0,0,0,0,0,0,0,0,0,0,0,0,0,0,0,0,0,0,0,0,0,0,0,0,0,0,0,0,0,0.1846,0.1846,0,0.1865,0.1865,0.1865,0.1866,0.1865,0.1865,0.1865,0.1918,0.1919,0.1921,0,0,0,0,0,0,0,0,0,0,0,0,0,0.1842,0.1842,0.1845,0.1846,0.1846,0.1865,0.1865,0.1865,0.1866,0.1865,0.1865,0.1865,0.1917,0.1919,0.1921,0,0,0,0,0,0,0,0,0,0,0,0,0,0.185,0.1842,0.1845,0.1849,0.1849,0.1865,0.1865,0.1865,0.1866,0.1865,0.1865,0.1865,0.1916,0.1919,0.1921,0.1942,0,0,0.1928,0.1929,0,0,0,0,0,0,0,0,0.185,0.185,0.1848,0.1848,0.1849,0.1863,0.1883,0.1893,0.1866,0.1859,0.1865,0.1865,0.1903,0.1906,0.191,0.1945,0.1947,0.1929,0.193,0.1931,0.1932,0,0,0,0,0,0,0,0.1849,0.185,0.1853,0.1848,0.1849,0.186,0.1861,0.1885,0.1883,0.186,0.186,0.1862,0.1903,0.1907,0.1911,0.1948,0.1929,0.1931,0.1932,0.1933,0.2001,0.2001,0,0,0,0,0,0,0.1846,0.1849,0.1852,0.1853,0.1849,0.1861,0.1861,0.1858,0.1882,0.1885,0.1863,0.1862,0.1903,0.1908,0.1913,0.1956,0.1931,0.1933,0.1935,0.2,0.2001,0.2001,0,0,0,0,0,0,0.1846,0.1846,0.1852,0.1852,0.1854,0.1861,0.1858,0.1859,0.1865,0.1884,0.1887,0.1868,0.1903,0.191,0.1927,0.1957,0.1934,0.1937,0.2,0.2001,0.2001,0.2032,0,0,0,0,0,0,0.1845,0.1845,0.1848,0.1852,0.1854,0.1865,0.1858,0.186,0.1867,0.1867,0.189,0.1894,0.1904,0.1924,0.193,0.196,0.1939,0.2,0.2,0.2001,0.2031,0.2034,0.2036,0,0,0,0,0,0.1845,0.1848,0.1848,0.1849,0.1855,0.1865,0.1868,0.1871,0.1868,0.1875,0.1881,0.1893,0.1932,0.1926,0.1933,0.1965,0.1999,0.2,0.2001,0.2029,0.2033,0.2036,0,0,0,0,0,0,0.1852,0.1849,0.1848,0.1851,0.186,0.1866,0.1875,0.1874,0.1884,0.1886,0.1896,0.1901,0.1932,0.1937,0.1929,0.1983,0.1969,0.1972,0.1989,0.1992,0.1995,0.1986,0.1941,0,0,0,0,0,0.1854,0.1853,0.1856,0.1861,0.1865,0.187,0.1877,0.188,0.1887,0.1891,0.1905,0.192,0.1942,0.1955,0.1974,0.2003,0.2002,0.2027,0.2029,0.2032,0.2028,0.2052,0.2057,0.2004,0.2004,0.2004,0,0,0.1857,0.1857,0.1857,0.1862,0.1869,0.188,0.1874,0.1886,0.1897,0.1897,0.1919,0.1934,0.195,0.1982,0.1997,0.199,0.2045,0.2033,0.2035,0.2029,0.2054,0.2059,0.2064,0.2004,0.2004,0.2004,0,0,0.1865,0.1866,0.1868,0.1875,0.1887,0.1892,0.1896,0.1906,0.1914,0.1932,0.1939,0.1959,0.1992,0.2008,0.202,0.2047,0.206,0.2064,0.2074,0.2099,0.2104,0.2108,0.2109,0.2113,0.2065,0.2065,0.2065,0,0.1873,0.1871,0.1873,0.1881,0.1887,0.1897,0.1905,0.1919,0.1934,0.1946,0.1942,0.1989,0.2003,0.2041,0.2049,0.2056,0.2064,0.2064,0.2104,0.2108,0.2112,0.2112,0.2116,0.2066,0.2066,0.2066,0.2066,0,0.1879,0.1882,0.1888,0.1896,0.1907,0.1918,0.1933,0.1952,0.1962,0.1974,0.2011,0.2025,0.2051,0.2066,0.2066,0.2108,0.2102,0.2107,0.2097,0.2119,0.2117,0.2121,0.2069,0.2068,0.2068,0.2067,0,0,0.1878,0.1888,0.189,0.1894,0.1914,0.1922,0.195,0.1973,0.1993,0.2017,0.2041,0.2076,0.2086,0.2098,0.2112,0.2129,0.216,0.2131,0.2131,0.2134,0.2205,0.2142,0.2139,0.2181,0.2182,0.2183,0.219,0,0.1881,0.1889,0.1897,0.1912,0.1916,0.1938,0.1961,0.1988,0.2013,0.2043,0.2068,0.2098,0.21,0.2117,0.2138,0.2162,0.2173,0.2157,0.218,0.218,0.2124,0.2142,0.1958,0.1944,0.2194,0.2195,0.2195,0,0.1878,0.1884,0.1894,0.1911,0.1917,0.1934,0.1971,0.1995,0.2043,0.2064,0.2102,0.2121,0.2159,0.215,0.2197,0.2192,0.2196,0.2203,0.2204,0.2135,0.2124,0.1963,0.1941,0.2201,0.2201,0.22,0.22,0,0.1861,0.1879,0.1884,0.189,0.1918,0.1934,0.1957,0.2003,0.2029,0.2082,0.211,0.2152,0.2187,0.2202,0.2223,0.2217,0.2264,0.2256,0.2197,0.2192,0.2031,0.201,0.2275,0.2275,0.2275,0.2275,0.2275,0,0.1851,0.1855,0.1878,0.1881,0.1899,0.1925,0.1955,0.1989,0.2041,0.2075,0.2122,0.2155,0.2206,0.2239,0.2236,0.2231,0.2278,0.2195,0.2193,0.2035,0.2015,0.2235,0.2231,0.2275,0.2275,0.2275,0.2275,0,0.1828,0.1841,0.1849,0.1878,0.1889,0.1904,0.1951,0.1975,0.2034,0.2082,0.2101,0.2178,0.2217,0.2247,0.228,0.225,0.2244,0.2226,0.2026,0.2,0.2145,0.2142,0.2148,0.2146,0.2144,0.2143,0.2142,0,0.1814,0.1816,0.1841,0.1848,0.1862,0.1889,0.1909,0.1965,0.1994,0.2086,0.2106,0.2172,0.2189,0.2214,0.2174,0.2145,0.2213,0.1957,0.1903,0.2136,0.2134,0.2134,0.2133,0.1698,0.1694,0.169,0.1687,0,0.1796,0.1807,0.1817,0.1824,0.184,0.1852,0.1887,0.1906,0.1975,0.2008,0.2054,0.2073,0.2105,0.1989,0.1969,0.193,0.1944,0.1876,0.2181,0.1764,0.1714,0.1712,0.1726,0.1652,0.1655,0.1658,0.166,0.1661,0.1788,0.1784,0.1794,0.1788,0.1805,0.1799,0.1779,0.1816,0.1829,0.1846,0.1935,0.1892,0.189,0.1754,0.1677,0.1614,0.1753,0.1654,0.1665,0.1681,0.1632,0.1583,0.1485,0.1487,0.1489,0.1491,0.1493,0,0.1758,0.1753,0.1754,0.1733,0.1709,0.1739,0.1743,0.1699,0.1666,0.1703,0.1704,0.154,0.1439,0.1438,0.1275,0.1252,0.1238,0.1199,0.1159,0.1195,0.1226,0.1154,0.088,0.0878,0.0877,0.0875,0,0,0.1746,0.1721,0.17,0.163,0.1616,0.1549,0.1526,0.1479,0.1469,0.1402,0.1348,0.142,0.1421,0.1157,0.1095,0.096,0.1081,0.0921,0.1413,0.1406,0.1436,0.1488,0.1416,0,0,0,0,0]},{"header":{"parameterUnit":"m.s-1","parameterCategory":2,"la1":30.2991,"la2":30.254,"lo1":-89.0895,"lo2":-89.0444,"dy":0.0017,"dx":0.0017,"nx":28,"ny":28,"refTime":"2024-04-30T21:00:00:Z","depth":"2","parameterNumber":3,"parameterNumberName":"V-component_of_CURRENTS"},"data":[0,0,0,0,0,0,0,0,0,0,0,0,0,0,0,0,0,0,0,0,0,0,0,0,0,0,0,0,0,0,0,0,0,0,0,0,0,0,0,0,0,0,0,0,0,0,0,0,0,0,0,0,0,0,0,0,0,0,0.0274,0.0274,0,0.0272,0.0272,0.0272,0.0259,0.0259,0.0258,0.0258,0.0234,0.0233,0.0233,0,0,0,0,0,0,0,0,0,0,0,0,0,0.0234,0.0235,0.0274,0.0274,0.0274,0.0272,0.0272,0.0272,0.0259,0.0259,0.0258,0.0258,0.0234,0.0234,0.0233,0,0,0,0,0,0,0,0,0,0,0,0,0,0.0243,0.0235,0.0274,0.0268,0.0268,0.0272,0.0272,0.0272,0.0259,0.0259,0.0258,0.0258,0.0234,0.0234,0.0233,0.0236,0,0,0.0231,0.0231,0,0,0,0,0,0,0,0,0.0242,0.0244,0.0269,0.0268,0.0268,0.0266,0.0249,0.0259,0.0259,0.0261,0.0258,0.0258,0.0244,0.0242,0.0241,0.0234,0.0233,0.0231,0.023,0.023,0.023,0,0,0,0,0,0,0,0.0242,0.0244,0.0272,0.0269,0.0268,0.0255,0.0256,0.0251,0.0253,0.0261,0.026,0.0262,0.0243,0.0242,0.0241,0.0233,0.0231,0.023,0.023,0.023,0.0238,0.0238,0,0,0,0,0,0,0.0246,0.0244,0.0272,0.0272,0.0255,0.0256,0.0257,0.0266,0.0253,0.0252,0.0262,0.0261,0.0243,0.0241,0.024,0.0256,0.023,0.023,0.0229,0.0237,0.0238,0.0239,0,0,0,0,0,0,0.0246,0.0249,0.0272,0.0258,0.026,0.0258,0.0268,0.0266,0.0268,0.0255,0.0252,0.0265,0.0243,0.0241,0.0247,0.0254,0.0229,0.0229,0.0236,0.0237,0.0238,0.0278,0,0,0,0,0,0,0.0245,0.0249,0.0256,0.0259,0.0261,0.0281,0.0268,0.0267,0.027,0.0269,0.0257,0.0254,0.0243,0.0248,0.0246,0.0253,0.0228,0.0236,0.0237,0.0238,0.0276,0.0281,0.0284,0,0,0,0,0,0.0243,0.0256,0.0257,0.026,0.0272,0.0281,0.0281,0.0277,0.027,0.0276,0.0272,0.0254,0.0253,0.0248,0.0246,0.0252,0.0235,0.0237,0.0238,0.0275,0.028,0.0284,0,0,0,0,0,0,0.0237,0.0256,0.0257,0.0273,0.0279,0.028,0.0284,0.0281,0.0282,0.0281,0.0266,0.0263,0.027,0.0258,0.0253,0.0258,0.024,0.0241,0.0269,0.0273,0.0277,0.0286,0.0228,0,0,0,0,0,0.0242,0.0259,0.0268,0.0281,0.0286,0.0286,0.0288,0.0288,0.0289,0.0289,0.0283,0.0276,0.0273,0.0272,0.0267,0.0273,0.0259,0.0274,0.0278,0.0282,0.0288,0.0279,0.0283,0.0243,0.0243,0.0243,0,0,0.0241,0.0255,0.0263,0.0281,0.0285,0.0301,0.0286,0.0296,0.0309,0.0286,0.0301,0.029,0.0279,0.0286,0.0287,0.0277,0.0285,0.0283,0.0287,0.0291,0.0281,0.0285,0.0288,0.0244,0.0244,0.0244,0,0,0.0255,0.0264,0.0284,0.0294,0.0308,0.0311,0.0316,0.0323,0.0325,0.0339,0.0325,0.0323,0.0321,0.0314,0.031,0.0334,0.0307,0.0329,0.0355,0.0347,0.035,0.0353,0.0336,0.0337,0.033,0.033,0.033,0,0.0252,0.0284,0.0289,0.0311,0.0324,0.0319,0.0342,0.0345,0.0353,0.0361,0.0349,0.0349,0.0335,0.0344,0.0351,0.0342,0.0331,0.0338,0.0352,0.0355,0.0357,0.0339,0.0339,0.0332,0.0332,0.0332,0.0331,0,0.0284,0.0307,0.0319,0.035,0.0363,0.0381,0.039,0.04,0.0401,0.0405,0.0415,0.0397,0.0396,0.0389,0.0377,0.0385,0.037,0.0359,0.034,0.0363,0.0343,0.0342,0.0335,0.0334,0.0334,0.0333,0,0,0.0285,0.0333,0.0338,0.0363,0.0387,0.0403,0.0425,0.0448,0.0469,0.0463,0.0484,0.0471,0.0457,0.0451,0.043,0.0422,0.042,0.0399,0.0398,0.0383,0.0397,0.0389,0.0388,0.0412,0.0412,0.0412,0.0376,0,0.0309,0.0362,0.0379,0.0425,0.0453,0.046,0.0485,0.0502,0.0511,0.0528,0.0507,0.0514,0.0482,0.0478,0.0466,0.0437,0.0422,0.043,0.0377,0.0376,0.0366,0.0388,0.0401,0.037,0.0375,0.0375,0.0375,0,0.0339,0.0374,0.0426,0.0476,0.0489,0.0512,0.0554,0.0576,0.0593,0.0598,0.0595,0.0576,0.0562,0.0528,0.0486,0.0494,0.0449,0.042,0.0417,0.0397,0.0368,0.0349,0.0369,0.0374,0.0374,0.0374,0.0374,0,0.0352,0.0407,0.0453,0.0471,0.0522,0.0545,0.057,0.0598,0.0629,0.0639,0.0658,0.0631,0.0625,0.0571,0.0504,0.0496,0.0454,0.0433,0.0381,0.0379,0.0373,0.0371,0.0398,0.0398,0.0398,0.0398,0.0398,0,0.038,0.0416,0.0464,0.0492,0.0548,0.057,0.0627,0.0646,0.068,0.0729,0.0693,0.0716,0.0637,0.0601,0.0527,0.0459,0.0468,0.0392,0.0375,0.0387,0.0386,0.0377,0.0375,0.0397,0.0397,0.0398,0.0398,0,0.0394,0.0425,0.0482,0.0539,0.056,0.06,0.067,0.0712,0.0735,0.0793,0.0797,0.0785,0.0743,0.0655,0.057,0.0498,0.0423,0.039,0.0405,0.0391,0.0344,0.0344,0.0333,0.0332,0.0332,0.0332,0.0331,0,0.0408,0.044,0.0515,0.0552,0.0582,0.0643,0.0692,0.0737,0.0787,0.0842,0.0875,0.0848,0.0845,0.0714,0.0587,0.0458,0.0428,0.0369,0.0355,0.0356,0.034,0.0341,0.0342,0.0357,0.0357,0.0357,0.0357,0,0.0435,0.0461,0.0511,0.0585,0.0644,0.0715,0.0785,0.0834,0.0895,0.0942,0.0994,0.0991,0.0885,0.0769,0.059,0.0497,0.0391,0.0364,0.0368,0.0375,0.0377,0.0361,0.0362,0.0357,0.0357,0.0357,0.0357,0.0357,0.0455,0.049,0.0554,0.0625,0.0694,0.0778,0.0835,0.0911,0.0994,0.1064,0.1071,0.1067,0.0939,0.0719,0.0564,0.0394,0.041,0.0333,0.0334,0.0335,0.0348,0.0349,0.0325,0.0325,0.0325,0.0325,0.0325,0,0.048,0.0524,0.0588,0.0675,0.0744,0.0782,0.0894,0.0948,0.1042,0.1106,0.1144,0.101,0.0892,0.0729,0.0497,0.0358,0.0339,0.029,0.0304,0.0307,0.0308,0.0319,0.029,0.0289,0.0288,0.0288,0,0,0.0495,0.0554,0.0585,0.0696,0.0758,0.0849,0.0912,0.1001,0.1066,0.1112,0.1113,0.1117,0.0944,0.0757,0.0574,0.0436,0.0395,0.0395,0.0442,0.0484,0.0487,0.0355,0.0378,0,0,0,0,0]}],[{"header":{"parameterUnit":"m.s-1","parameterCategory":2,"la1":30.2991,"la2":30.254,"lo1":-89.0895,"lo2":-89.0444,"dy":0.0017,"dx":0.0017,"nx":28,"ny":28,"refTime":"2024-04-30T21:00:00:Z","depth":"4","parameterNumber":2,"parameterNumberName":"U-component_of_CURRENTS"},"data":[0,0,0,0,0,0,0,0,0,0,0,0,0,0,0,0,0,0,0,0,0,0,0,0,0,0,0,0,0,0,0,0,0,0,0,0,0,0,0,0,0,0,0,0,0,0,0,0,0,0,0,0,0,0,0,0,0,0,0.1225,0.1225,0,0.1244,0.1244,0.1244,0.1261,0.1262,0.1262,0.1263,0.1276,0.1276,0.1275,0,0,0,0,0,0,0,0,0,0,0,0,0,0.1183,0.1184,0.1224,0.1225,0.1226,0.1244,0.1244,0.1244,0.1261,0.1262,0.1262,0.1263,0.1276,0.1276,0.1275,0,0,0,0,0,0,0,0,0,0,0,0,0,0.1199,0.1184,0.1224,0.1239,0.1241,0.1244,0.1244,0.1244,0.1261,0.1262,0.1263,0.1263,0.1276,0.1276,0.1275,0.1258,0,0,0.1275,0.1275,0,0,0,0,0,0,0,0,0.1198,0.12,0.1236,0.1238,0.124,0.1254,0.1235,0.125,0.1261,0.1249,0.1263,0.1264,0.127,0.127,0.1267,0.1259,0.1259,0.1275,0.1275,0.1274,0.1274,0,0,0,0,0,0,0,0.1197,0.1199,0.1229,0.1237,0.1239,0.1239,0.1242,0.1237,0.1252,0.1251,0.1253,0.126,0.127,0.1267,0.1267,0.126,0.1275,0.1274,0.1274,0.1274,0.1321,0.1323,0,0,0,0,0,0,0.1202,0.1198,0.1228,0.123,0.1224,0.1239,0.1242,0.1246,0.1252,0.1255,0.126,0.1261,0.1267,0.1268,0.1268,0.1314,0.1274,0.1274,0.1274,0.132,0.1322,0.1323,0,0,0,0,0,0,0.1201,0.1204,0.1227,0.1217,0.1221,0.124,0.1243,0.1246,0.1271,0.126,0.1262,0.1286,0.1268,0.1268,0.129,0.1312,0.1274,0.1274,0.1318,0.132,0.1322,0.1365,0,0,0,0,0,0,0.1199,0.1203,0.1217,0.1218,0.1222,0.1246,0.1243,0.1246,0.1274,0.1277,0.1282,0.1283,0.1268,0.1291,0.129,0.1311,0.1274,0.1317,0.1319,0.1322,0.1361,0.1368,0.1373,0,0,0,0,0,0.1197,0.1207,0.1218,0.1222,0.1237,0.1247,0.1249,0.1262,0.1275,0.1287,0.1297,0.1284,0.1307,0.1291,0.129,0.1312,0.1315,0.1319,0.1322,0.1359,0.1367,0.1373,0,0,0,0,0,0,0.1196,0.121,0.1222,0.1236,0.1252,0.1252,0.1268,0.1279,0.1295,0.1306,0.1296,0.1297,0.1326,0.1316,0.13,0.1336,0.1311,0.1314,0.134,0.1347,0.1353,0.1357,0.1274,0,0,0,0,0,0.1203,0.1217,0.123,0.1246,0.1256,0.1269,0.128,0.1291,0.1301,0.131,0.1317,0.1326,0.1332,0.1339,0.1342,0.1357,0.1357,0.1374,0.138,0.1385,0.1389,0.1421,0.143,0.1333,0.1333,0.1333,0,0,0.1207,0.1219,0.1228,0.1248,0.126,0.1274,0.1277,0.1302,0.1319,0.1308,0.1341,0.1348,0.1343,0.1362,0.1375,0.136,0.1412,0.1389,0.1393,0.1394,0.1425,0.1435,0.1443,0.1335,0.1335,0.1335,0,0,0.1214,0.1235,0.1247,0.1262,0.129,0.1296,0.1312,0.1332,0.135,0.1378,0.1377,0.1401,0.1412,0.1412,0.1411,0.1453,0.1444,0.1461,0.149,0.1522,0.153,0.1537,0.1542,0.1549,0.1462,0.1462,0.1462,0,0.1223,0.1236,0.1254,0.1269,0.1284,0.1311,0.1326,0.1344,0.1372,0.1389,0.1398,0.1434,0.1433,0.1451,0.1469,0.1465,0.1477,0.146,0.1529,0.1536,0.1542,0.1546,0.1553,0.1464,0.1464,0.1464,0.1463,0,0.1229,0.1251,0.1261,0.1288,0.1307,0.1327,0.1353,0.1384,0.1414,0.1431,0.1475,0.1482,0.1503,0.151,0.1501,0.1547,0.1538,0.1533,0.1508,0.1555,0.1555,0.1562,0.1468,0.1467,0.1466,0.1465,0,0,0.1215,0.1257,0.1264,0.1282,0.1321,0.1333,0.1372,0.1405,0.1437,0.1476,0.1513,0.1538,0.1558,0.156,0.1561,0.1588,0.1642,0.1588,0.1588,0.1588,0.1704,0.1575,0.1569,0.1658,0.1659,0.1661,0.1682,0,0.1218,0.1246,0.1268,0.1301,0.1317,0.1354,0.1384,0.1423,0.1462,0.1506,0.1534,0.157,0.1571,0.1592,0.1623,0.1641,0.1664,0.1635,0.1663,0.1663,0.1539,0.1574,0.1666,0.1687,0.1689,0.169,0.1691,0,0.121,0.1233,0.1265,0.1309,0.1321,0.1351,0.1407,0.1439,0.1501,0.1533,0.1581,0.1605,0.1654,0.165,0.171,0.1697,0.1708,0.1716,0.1717,0.1587,0.1547,0.1634,0.1703,0.1702,0.1701,0.17,0.17,0,0.1181,0.1228,0.1256,0.1271,0.1326,0.1358,0.1395,0.1455,0.149,0.1561,0.1599,0.1651,0.1695,0.1725,0.1751,0.1743,0.1807,0.1792,0.168,0.167,0.1761,0.1754,0.1833,0.1833,0.1833,0.1833,0.1832,0,0.1159,0.1185,0.1253,0.1268,0.131,0.1354,0.1406,0.1452,0.152,0.1558,0.1621,0.1653,0.1726,0.1765,0.177,0.1742,0.1825,0.1686,0.1671,0.1777,0.1771,0.1765,0.1757,0.1833,0.1833,0.1833,0.1833,0,0.112,0.1163,0.1202,0.1272,0.1299,0.1334,0.1415,0.1446,0.1523,0.1578,0.1606,0.1686,0.1724,0.1765,0.1811,0.1758,0.1745,0.1714,0.1818,0.1808,0.1579,0.1574,0.158,0.1575,0.1572,0.1569,0.1566,0,0.1097,0.1116,0.1202,0.123,0.127,0.1328,0.1364,0.1442,0.1473,0.1575,0.1591,0.1665,0.17,0.1657,0.1709,0.1693,0.1675,0.1651,0.1615,0.157,0.1556,0.1556,0.1555,0.156,0.1559,0.1558,0.1557,0,0.1059,0.1105,0.1142,0.1198,0.1247,0.1281,0.134,0.1353,0.1435,0.1523,0.1528,0.153,0.1566,0.1575,0.1578,0.1566,0.1655,0.1613,0.162,0.1586,0.1547,0.1536,0.154,0.1545,0.1547,0.1548,0.1549,0,0.104,0.1058,0.1115,0.115,0.1206,0.1212,0.1249,0.1273,0.1308,0.1414,0.1412,0.1478,0.1553,0.1509,0.1511,0.1488,0.1457,0.1399,0.1417,0.1431,0.1371,0.1299,0.1208,0,0,0,0,0,0.1011,0.102,0.1055,0.1082,0.113,0.1155,0.122,0.1255,0.1337,0.1304,0.1349,0.1363,0.1352,0.1385,0.1328,0.1444,0.147,0.1371,0.1414,0.1475,0.1489,0.143,0,0,0,0,0,0,0.0992,0.1031,0.1032,0.1012,0.1014,0.1048,0.1084,0.114,0.1119,0.121,0.1212,0.1274,0.1288,0.137,0.1301,0.131,0.1305,0.1412,0.1408,0.1467,0.148,0.1491,0.1435,0,0,0,0,0]},{"header":{"parameterUnit":"m.s-1","parameterCategory":2,"la1":30.2991,"la2":30.254,"lo1":-89.0895,"lo2":-89.0444,"dy":0.0017,"dx":0.0017,"nx":28,"ny":28,"refTime":"2024-04-30T21:00:00:Z","depth":"4","parameterNumber":3,"parameterNumberName":"V-component_of_CURRENTS"},"data":[0,0,0,0,0,0,0,0,0,0,0,0,0,0,0,0,0,0,0,0,0,0,0,0,0,0,0,0,0,0,0,0,0,0,0,0,0,0,0,0,0,0,0,0,0,0,0,0,0,0,0,0,0,0,0,0,0,0,0.0235,0.0235,0,0.0247,0.0248,0.0248,0.0253,0.0253,0.0253,0.0253,0.0267,0.0268,0.0268,0,0,0,0,0,0,0,0,0,0,0,0,0,0.0194,0.0195,0.0235,0.0235,0.0235,0.0247,0.0248,0.0248,0.0253,0.0253,0.0253,0.0253,0.0267,0.0268,0.0268,0,0,0,0,0,0,0,0,0,0,0,0,0,0.021,0.0195,0.0235,0.0239,0.024,0.0247,0.0248,0.0248,0.0253,0.0253,0.0253,0.0253,0.0267,0.0268,0.0268,0.0272,0,0,0.027,0.027,0,0,0,0,0,0,0,0,0.0209,0.0211,0.0238,0.0239,0.024,0.0249,0.0239,0.0256,0.0253,0.0248,0.0253,0.0253,0.0261,0.0262,0.0265,0.0273,0.0273,0.027,0.027,0.0271,0.0271,0,0,0,0,0,0,0,0.0208,0.0211,0.0239,0.0239,0.0239,0.0234,0.0236,0.0242,0.0254,0.0248,0.0249,0.0251,0.0262,0.0264,0.0265,0.0273,0.027,0.0271,0.0271,0.0271,0.0304,0.0304,0,0,0,0,0,0,0.0208,0.021,0.0239,0.024,0.0224,0.0235,0.0237,0.0246,0.0254,0.0256,0.0251,0.0251,0.0263,0.0264,0.0265,0.0291,0.0271,0.0271,0.0271,0.0303,0.0304,0.0304,0,0,0,0,0,0,0.0207,0.0211,0.0239,0.0225,0.0228,0.0236,0.0245,0.0246,0.0253,0.0256,0.0257,0.0257,0.0263,0.0265,0.0281,0.0291,0.0271,0.0272,0.0302,0.0303,0.0304,0.0329,0,0,0,0,0,0,0.0206,0.0211,0.0218,0.0225,0.0229,0.0249,0.0245,0.0246,0.0254,0.0255,0.0262,0.0263,0.0263,0.0281,0.0282,0.0291,0.0272,0.0302,0.0303,0.0304,0.0328,0.0331,0.0333,0,0,0,0,0,0.0205,0.0216,0.0218,0.0222,0.0238,0.025,0.0251,0.0256,0.0254,0.0261,0.0269,0.0263,0.0287,0.0282,0.0283,0.0293,0.0301,0.0303,0.0304,0.0326,0.033,0.0333,0,0,0,0,0,0,0.02,0.0218,0.022,0.0236,0.0244,0.0251,0.0258,0.0259,0.027,0.0272,0.0273,0.0275,0.0292,0.029,0.0283,0.0305,0.0292,0.0294,0.0309,0.0312,0.0315,0.0319,0.0273,0,0,0,0,0,0.0203,0.0219,0.0229,0.0242,0.0247,0.0253,0.0258,0.0262,0.0271,0.0276,0.0282,0.0288,0.0297,0.0303,0.0309,0.0323,0.031,0.0329,0.0332,0.0334,0.0338,0.0327,0.0329,0.0308,0.0308,0.0308,0,0,0.0203,0.0216,0.0224,0.0242,0.0249,0.0264,0.0256,0.0268,0.0283,0.0276,0.0299,0.03,0.0303,0.0319,0.0326,0.032,0.0333,0.0336,0.0338,0.0341,0.0329,0.0331,0.0332,0.0309,0.0309,0.0309,0,0,0.0214,0.0225,0.0242,0.0253,0.0267,0.0273,0.0278,0.029,0.0298,0.0318,0.0316,0.0323,0.0338,0.0341,0.0344,0.0366,0.0348,0.0368,0.0386,0.0375,0.0377,0.0378,0.036,0.0359,0.0369,0.0369,0.0369,0,0.0213,0.024,0.0247,0.0266,0.0279,0.028,0.03,0.0308,0.0324,0.0335,0.033,0.0349,0.0348,0.0366,0.0374,0.0372,0.0361,0.0373,0.0378,0.0379,0.038,0.0361,0.036,0.037,0.037,0.037,0.037,0,0.0238,0.0259,0.027,0.0298,0.0311,0.0329,0.0342,0.0355,0.0362,0.037,0.0388,0.0385,0.0395,0.0394,0.0392,0.0401,0.0389,0.0382,0.0369,0.0384,0.0363,0.0362,0.0372,0.0372,0.0371,0.0371,0,0,0.0239,0.028,0.0285,0.0307,0.0332,0.0348,0.0371,0.0395,0.0415,0.0419,0.044,0.0445,0.0437,0.044,0.0432,0.0423,0.0415,0.0408,0.0407,0.0389,0.0387,0.0365,0.0361,0.0409,0.0409,0.0409,0.0369,0,0.0257,0.0301,0.0317,0.0358,0.0382,0.0394,0.042,0.044,0.0452,0.0471,0.0461,0.0476,0.0456,0.046,0.0449,0.043,0.0413,0.0426,0.0377,0.0375,0.0353,0.036,0.0409,0.0367,0.0367,0.0367,0.0366,0,0.0279,0.0308,0.0352,0.0399,0.0411,0.0435,0.0476,0.0499,0.0519,0.0527,0.053,0.0521,0.0514,0.049,0.0454,0.0464,0.0428,0.0404,0.0402,0.0373,0.0352,0.035,0.0363,0.0364,0.0364,0.0364,0.0364,0,0.0285,0.0334,0.0373,0.0389,0.0438,0.0462,0.0488,0.0518,0.0547,0.0561,0.0577,0.056,0.0559,0.0513,0.0462,0.0459,0.0415,0.0402,0.0344,0.0341,0.0361,0.036,0.0367,0.0367,0.0367,0.0367,0.0367,0,0.0303,0.0335,0.0381,0.0405,0.0456,0.0481,0.0534,0.0555,0.0588,0.0625,0.0606,0.062,0.0566,0.0533,0.0474,0.0407,0.042,0.0348,0.0332,0.0372,0.0373,0.0359,0.0359,0.0365,0.0366,0.0366,0.0366,0,0.0308,0.0337,0.0387,0.0442,0.0464,0.0501,0.0569,0.0605,0.063,0.0674,0.0679,0.067,0.0629,0.0563,0.0491,0.0429,0.0361,0.0329,0.0376,0.0363,0.0289,0.029,0.0261,0.0259,0.0259,0.0258,0.0257,0,0.0316,0.0342,0.0412,0.0445,0.0474,0.0532,0.0577,0.0623,0.0661,0.0704,0.0723,0.07,0.068,0.0561,0.0488,0.0368,0.0345,0.0298,0.0292,0.0292,0.0279,0.0282,0.0285,0.0256,0.0256,0.0255,0.0255,0,0.0329,0.0355,0.0396,0.0461,0.0515,0.0578,0.064,0.0669,0.0722,0.0746,0.0751,0.0696,0.065,0.0558,0.0465,0.0379,0.0324,0.0288,0.0289,0.0283,0.0286,0.0275,0.0278,0.0252,0.0253,0.0253,0.0253,0,0.0339,0.0365,0.0417,0.0476,0.0543,0.0605,0.064,0.0684,0.0723,0.0762,0.0762,0.0714,0.0692,0.0564,0.0481,0.0393,0.0364,0.0315,0.0314,0.0317,0.0342,0.0354,0.033,0,0,0,0,0,0.0345,0.0374,0.0426,0.0492,0.0557,0.0598,0.0676,0.0705,0.0753,0.0755,0.0758,0.0711,0.0597,0.0556,0.0463,0.0458,0.0346,0.0343,0.0289,0.0235,0.0239,0.0257,0,0,0,0,0,0,0.0348,0.0395,0.0422,0.0495,0.0537,0.0613,0.0664,0.0698,0.0698,0.0727,0.0672,0.0659,0.0554,0.0643,0.045,0.0428,0.0373,0.03,0.0297,0.0233,0.0236,0.0239,0.0259,0,0,0,0,0]}]]